When you browse on this site, cookies collect data to enhance your experience and personalize the content and advertising you see.
Visit our Privacy Policy to learn more. By continuing to use the site, you agree to this use of cookies and data.
  • In Romania
  • List of Countries
  • For 7 days
  • Water Temperature
  • Satellite Maps
  • Weather Map
  • Weather Widgets
  • user-avatar
    Login

    Hourly Weather Achenheim

    Today, 22 February, Friday

    Time Temperature Precipitation Wind Pressure Humidity
    00:00 +10°C° 0 mm 1 mps 758 mmHg 86%
    01:00 +10°C° 0 mm 1 mps 758 mmHg 87%
    02:00 +9°C° 0 mm 1 mps 758 mmHg 88%
    03:00 +9°C° 0 mm 1 mps 758 mmHg 89%
    04:00 +9°C° 0 mm 1 mps 758 mmHg 90%
    05:00 +9°C° 0 mm 1 mps 758 mmHg 90%
    06:00 +9°C° 0 mm 1 mps 759 mmHg 90%
    07:00 +8°C° 0 mm 0 mps 759 mmHg 90%
    08:00 +10°C° 0 mm 1 mps 759 mmHg 87%
    09:00 +10°C° 0 mm 1 mps 759 mmHg 85%
    10:00 +11°C° 0 mm 1 mps 760 mmHg 82%
    11:00 +12°C° 0 mm 2 mps 760 mmHg 79%
    12:00 +12°C° 0 mm 2 mps 760 mmHg 76%
    13:00 +12°C° 0 mm 3 mps 760 mmHg 73%
    14:00 +12°C° 0 mm 3 mps 760 mmHg 71%
    15:00 +12°C° 0 mm 3 mps 760 mmHg 70%
    16:00 +12°C° 0 mm 3 mps 760 mmHg 69%
    17:00 +11°C° 0 mm 3 mps 760 mmHg 74%
    18:00 +9°C° 0 mm 3 mps 760 mmHg 78%
    19:00 +8°C° 0 mm 2 mps 760 mmHg 83%
    20:00 +8°C° 0 mm 2 mps 760 mmHg 84%
    21:00 +7°C° 0 mm 2 mps 760 mmHg 85%
    22:00 +7°C° 0 mm 2 mps 760 mmHg 86%
    23:00 +6°C° 0 mm 2 mps 760 mmHg 87%

    Tomorrow, 23 February, Saturday

    Time Temperature Precipitation Wind Pressure Humidity
    00:00 +6°C° 0 mm 2 mps 760 mmHg 88%
    01:00 +6°C° 0 mm 2 mps 760 mmHg 89%
    02:00 +5°C° 0 mm 2 mps 760 mmHg 90%
    03:00 +5°C° 0 mm 2 mps 760 mmHg 90%
    04:00 +4°C° 0 mm 2 mps 760 mmHg 91%
    05:00 +4°C° 0 mm 2 mps 760 mmHg 91%
    06:00 +3°C° 0 mm 2 mps 760 mmHg 91%
    07:00 +3°C° 0 mm 2 mps 760 mmHg 91%
    08:00 +4°C° 0 mm 2 mps 760 mmHg 85%
    09:00 +5°C° 0 mm 2 mps 760 mmHg 78%
    10:00 +5°C° 0 mm 3 mps 760 mmHg 72%
    11:00 +8°C° 0 mm 3 mps 760 mmHg 61%
    12:00 +9°C° 0 mm 3 mps 760 mmHg 51%
    13:00 +11°C° 0 mm 3 mps 760 mmHg 40%
    14:00 +11°C° 0 mm 4 mps 759 mmHg 38%
    15:00 +11°C° 0 mm 4 mps 759 mmHg 36%
    16:00 +12°C° 0 mm 4 mps 759 mmHg 35%
    17:00 +10°C° 0 mm 4 mps 759 mmHg 38%
    18:00 +8°C° 0 mm 3 mps 759 mmHg 42%
    19:00 +5°C° 0 mm 3 mps 759 mmHg 46%
    20:00 +6°C° 0 mm 2 mps 760 mmHg 47%
    21:00 +5°C° 0 mm 2 mps 760 mmHg 48%
    22:00 +4°C° 0 mm 2 mps 760 mmHg 49%
    23:00 +4°C° 0 mm 2 mps 760 mmHg 48%

    Day after tomorrow, 24 February, Sunday

    Time Temperature Precipitation Wind Pressure Humidity
    00:00 +3°C° 0 mm 2 mps 760 mmHg 48%
    01:00 +3°C° 0 mm 2 mps 760 mmHg 48%
    02:00 +2°C° 0 mm 2 mps 760 mmHg 48%
    03:00 +2°C° 0 mm 2 mps 760 mmHg 47%
    04:00 +2°C° 0 mm 2 mps 760 mmHg 47%
    05:00 +2°C° 0 mm 2 mps 760 mmHg 47%
    06:00 +1°C° 0 mm 2 mps 760 mmHg 46%
    07:00 +1°C° 0 mm 2 mps 760 mmHg 46%
    08:00 +4°C° 0 mm 1 mps 760 mmHg 42%
    09:00 +5°C° 0 mm 1 mps 761 mmHg 39%
    10:00 +7°C° 0 mm 1 mps 761 mmHg 35%
    11:00 +8°C° 0 mm 2 mps 761 mmHg 34%
    12:00 +9°C° 0 mm 2 mps 760 mmHg 32%
    13:00 +11°C° 0 mm 3 mps 760 mmHg 31%
    14:00 +11°C° 0 mm 3 mps 760 mmHg 32%
    15:00 +12°C° 0 mm 3 mps 760 mmHg 34%
    16:00 +12°C° 0 mm 3 mps 760 mmHg 36%
    17:00 +11°C° 0 mm 3 mps 760 mmHg 40%
    18:00 +9°C° 0 mm 3 mps 760 mmHg 45%
    19:00 +7°C° 0 mm 2 mps 761 mmHg 49%
    20:00 +7°C° 0 mm 2 mps 761 mmHg 51%
    21:00 +6°C° 0 mm 2 mps 761 mmHg 53%
    22:00 +6°C° 0 mm 1 mps 761 mmHg 56%
    23:00 +6°C° 0 mm 1 mps 761 mmHg 56%

    25 February, Monday

    Time Temperature Precipitation Wind Pressure Humidity
    00:00 +5°C° 0 mm 2 mps 761 mmHg 57%
    01:00 +4°C° 0 mm 2 mps 761 mmHg 58%
    02:00 +4°C° 0 mm 2 mps 761 mmHg 58%
    03:00 +5°C° 0 mm 1 mps 761 mmHg 59%
    04:00 +4°C° 0 mm 1 mps 761 mmHg 59%
    05:00 +5°C° 0 mm 1 mps 761 mmHg 59%
    06:00 +5°C° 0 mm 1 mps 761 mmHg 59%
    07:00 +5°C° 0 mm 1 mps 762 mmHg 59%
    08:00 +6°C° 0 mm 1 mps 762 mmHg 57%
    09:00 +6°C° 0 mm 2 mps 762 mmHg 55%
    10:00 +7°C° 0 mm 2 mps 762 mmHg 54%
    11:00 +9°C° 0 mm 2 mps 761 mmHg 51%
    12:00 +10°C° 0 mm 3 mps 761 mmHg 49%
    13:00 +12°C° 0 mm 3 mps 761 mmHg 46%
    14:00 +12°C° 0 mm 3 mps 761 mmHg 48%
    15:00 +13°C° 0 mm 3 mps 760 mmHg 49%
    16:00 +13°C° 0 mm 3 mps 760 mmHg 51%
    17:00 +12°C° 0 mm 3 mps 760 mmHg 57%
    18:00 +10°C° 0 mm 3 mps 760 mmHg 64%
    19:00 +9°C° 0 mm 3 mps 760 mmHg 70%
    20:00 +8°C° 0 mm 2 mps 760 mmHg 73%
    21:00 +8°C° 0 mm 2 mps 760 mmHg 77%
    22:00 +7°C° 0 mm 2 mps 760 mmHg 80%
    23:00 +7°C° 0 mm 2 mps 760 mmHg 81%

    26 February, Tuesday

    Time Temperature Precipitation Wind Pressure Humidity
    00:00 +6°C° 0 mm 2 mps 760 mmHg 82%
    01:00 +6°C° 0 mm 2 mps 760 mmHg 82%
    02:00 +5°C° 0 mm 2 mps 760 mmHg 83%
    03:00 +6°C° 0 mm 1 mps 760 mmHg 83%
    04:00 +6°C° 0 mm 1 mps 760 mmHg 83%
    05:00 +6°C° 0 mm 1 mps 760 mmHg 83%
    06:00 +5°C° 0 mm 1 mps 760 mmHg 82%
    07:00 +5°C° 0 mm 1 mps 760 mmHg 82%
    08:00 +7°C° 0 mm 1 mps 760 mmHg 75%
    09:00 +8°C° 0 mm 1 mps 760 mmHg 69%
    10:00 +10°C° 0 mm 1 mps 760 mmHg 62%
    11:00 +12°C° 0 mm 2 mps 760 mmHg 57%
    12:00 +13°C° 0 mm 2 mps 759 mmHg 53%
    13:00 +15°C° 0 mm 2 mps 759 mmHg 48%
    14:00 +14°C° 0 mm 3 mps 759 mmHg 48%
    15:00 +16°C° 0 mm 3 mps 758 mmHg 49%
    16:00 +16°C° 0 mm 3 mps 758 mmHg 49%
    17:00 +13°C° 0 mm 3 mps 758 mmHg 56%
    18:00 +13°C° 0 mm 2 mps 758 mmHg 62%
    19:00 +10°C° 0 mm 2 mps 758 mmHg 69%
    20:00 +9°C° 0 mm 2 mps 758 mmHg 72%
    21:00 +10°C° 0 mm 1 mps 758 mmHg 74%
    22:00 +9°C° 0 mm 1 mps 758 mmHg 77%
    23:00 +9°C° 0 mm 1 mps 758 mmHg 79%

    27 February, Wednesday

    Time Temperature Precipitation Wind Pressure Humidity
    00:00 +8°C° 0 mm 1 mps 757 mmHg 81%
    01:00 +8°C° 0 mm 1 mps 757 mmHg 82%
    02:00 +8°C° 0 mm 1 mps 757 mmHg 83%
    03:00 +7°C° 0 mm 1 mps 757 mmHg 83%
    04:00 +7°C° 0 mm 1 mps 757 mmHg 83%
    05:00 +7°C° 0 mm 1 mps 756 mmHg 83%
    06:00 +7°C° 0 mm 1 mps 756 mmHg 83%
    07:00 +6°C° 0 mm 0 mps 756 mmHg 82%
    08:00 +7°C° 0 mm 0 mps 756 mmHg 76%
    09:00 +9°C° 0 mm 0 mps 756 mmHg 69%
    10:00 +11°C° 0 mm 0 mps 756 mmHg 62%
    11:00 +13°C° 0 mm 1 mps 756 mmHg 56%
    12:00 +15°C° 0 mm 1 mps 755 mmHg 50%
    13:00 +18°C° 0 mm 1 mps 755 mmHg 44%
    14:00 +18°C° 0 mm 1 mps 754 mmHg 45%
    15:00 +18°C° 0 mm 1 mps 754 mmHg 45%
    16:00 +19°C° 0 mm 1 mps 753 mmHg 45%
    17:00 +16°C° 0 mm 1 mps 753 mmHg 52%
    18:00 +14°C° 0 mm 1 mps 753 mmHg 58%
    19:00 +12°C° 0 mm 1 mps 753 mmHg 64%
    20:00 +12°C° 0 mm 1 mps 753 mmHg 66%
    21:00 +11°C° 0 mm 1 mps 753 mmHg 68%
    22:00 +11°C° 0 mm 1 mps 753 mmHg 70%
    23:00 +10°C° 0 mm 1 mps 753 mmHg 71%
    Show more